Location: Oshawa
(43.9000°N, 78.8670°W)
Time: 02:23:48
(UTC-04:00)

Cosmos 1707 Rocket - Visible Passes

Search period start: 02 October 2014 00:00
Search period end: 12 October 2014 00:00
Orbit: 607 x 634 km, 82.5° (Epoch: 30 September)

Date Brightness Start Highest point End Pass type
(mag) Time Alt. Az. Time Alt. Az. Time Alt. Az.
02 Oct 4.0 20:02:30 10° SSE 20:06:28 37° E 20:10:28 10° NNE visible
02 Oct 6.1 21:41:16 10° WSW 21:44:29 20° WNW 21:47:44 10° NNW visible
03 Oct 6.9 06:11:16 10° NE 06:13:07 12° ENE 06:14:57 10° E visible
03 Oct 3.4 20:19:47 10° S 20:24:05 71° E 20:28:26 10° NNE visible
03 Oct 6.8 22:01:04 10° W 22:02:31 11° WNW 22:03:58 10° NW visible
04 Oct 6.5 06:27:42 10° NNE 06:31:08 21° ENE 06:34:33 10° ESE visible
04 Oct 4.0 20:37:31 10° SSW 20:41:47 61° W 20:46:08 10° N visible
05 Oct 5.4 06:44:53 10° N 06:49:02 37° ENE 06:53:11 10° SE visible
05 Oct 4.7 19:18:35 10° SE 19:21:56 22° E 19:25:18 10° NE visible
05 Oct 5.3 20:55:42 10° SW 20:59:37 33° WNW 21:03:34 10° N visible
06 Oct 3.9 19:35:24 10° SSE 19:39:27 40° E 19:43:33 10° NNE visible
06 Oct 6.3 21:14:28 10° WSW 21:17:32 19° WNW 21:20:39 10° NNW visible
07 Oct 6.8 05:43:59 10° NE 05:46:11 13° ENE 05:48:23 10° E visible
07 Oct 3.4 19:52:45 10° S 19:57:05 78° E 20:01:28 10° N visible
07 Oct 7.0 21:34:41 10° WNW 21:35:35 11° WNW 21:36:28 10° NW visible
08 Oct 6.2 06:00:36 10° NNE 06:04:11 23° ENE 06:07:45 10° SE visible
08 Oct 4.3 20:10:33 10° SSW 20:14:48 56° W 20:19:08 10° N visible
09 Oct 5.1 06:17:50 10° N 06:22:04 41° ENE 06:26:17 10° SSE visible
09 Oct 5.5 20:28:48 10° SW 20:32:38 30° WNW 20:36:32 10° NNW visible
10 Oct 3.8 06:35:22 10° N 06:39:51 77° E 06:44:19 10° SSE visible
10 Oct 3.9 19:08:19 10° SSE 19:12:26 44° E 19:16:37 10° NNE visible
10 Oct 6.5 20:47:40 10° WSW 20:50:35 17° WNW 20:53:32 10° NNW visible
11 Oct 6.8 05:16:45 10° NNE 05:19:15 15° ENE 05:21:44 10° ESE visible
11 Oct 3.7 06:53:09 10° NNW 06:57:32 57° W 07:01:55 10° S visible
11 Oct 3.5 19:25:44 10° S 19:30:04 85° E 19:34:29 10° N visible
